SCP
0 0 0 0 0 0 0 0 0 0 0 0 0 0 0 0 0 0 0 0 0 0 0 0 0 0 0 0 0 -0 -0 0 0 -0 -0 0 0 0 0 0 0 0 0 0 0 0 0 0 0 0 0 0 0 0
0 0 0 0 0 0 0 0 0 0 0 0 0 0 0 0 0 0 0 0 0 0 0 -0 -0 -0 -0 -0 0 0 0 0 0 0 0 0 0 0 0 0 0 0 0 0 0 0 0 0 0 0 0 0 0 0
0 0 0 0 0 0 0 0 0 0 0 0 0 0 0 0 0 0 0 0 0 0 0 0 0 0 0 -0 0 0 0 0 0 0 0 0 0 0 0 0 0 0 0 0 0 0 0 0 -0 -0 -0 -0 -0 -0
0 0 0 0 0 0 0 0 0 0 0 0 0 0 -0 -0 0 0 0 0 0 0 0 -0 0 -0 0 0 0 0 0 0 -0 0 0 0 0 0 0 0 0 0 0 0 0 0 0 -0 -0 -0 -0 -0 -0 0
0 0 0 0 0 0 0 0 0 0 0 0 0 -0 -0 -0 0 0 0 0 0 0 0 0 -0 0 -0 0 0 0 0 0 0 0 0 0 0 0 0 0 0 0 0 0 0 0 0 0 0 0 -0 -0 0 0
0 0 0 0 0 0 0 0 0 -0 -0 -0 -0 -0 -0 -0 0 0 0 0 0 0 0 -0 -0 -0 -0 -0 0 0 0 0 0 0 0 0 0 0 0 0 0 0 0 0 0 0 -0 0 0 0 0 0 0 0
0 0 0 0 0 0 0 0 0 -0 -0 -0 -0 -0 -0 0 0 0 0 0 0 0 0 -0 -0 -0 -0 0 0 0 -0 0 0 0 0 0 0 0 0 0 0 0 0 0 0 0 -0 0 0 0 0 0 0 -0
0 0 0 0 0 -0 0 0 -0 -0 -0 0 -0 -0 0 0 0 0 0 0 0 0 0 -0 -0 -0 -0 -0 0 0 -0 0 0 0 0 0 0 0 0 0 0 0 0 0 0 0 0 0 0 0 0 0 -0 -0
0 0 0 0 -0 0 -0 -0 -0 -0 0 -0 -0 0 0 0 0 0 0 0 0 0 -0 -0 -0 -0 -0 -0 0 0 0 0 0 0 0 0 0 0 0 0 0 -0 -0 -0 -0 0 0 0 0 0 0 0 0 0
0 -0 -0 -0 0 0 -0 0 0 0 0 0 0 0 0 0 -0 0 0 0 0 0 0 -0 -0 0 -0 -0 0 0 0 0 -0 -0 0 0 0 0 0 0 0 0 0 -0 -0 0 -0 0 0 0 0 0 0 0
-0 -0 0 0 0 -0 0 0 0 0 0 0 0 0 0 0 0 0 0 0 0 0 0 -0 -0 -0 -0 -0 -0 0 0 0 0 -0 0 0 0 0 0 0 0 -0 -0 -0 -0 -0 -0 -0 -0 0 0 0 0 0
-0 -0 -0 0 0 0 0 0 0 0 0 0 0 0 0 0 0 0 0 0 0 0 -0 0 0 0 -0 -0 -0 0 0 0 0 0 0 0 -0 0 0 0 0 0 0 0 0 0 -0 -0 -0 0 0 0 0 0
-0 -0 -0 -0 0 0 0 0 0 -0 0 0 0 0 0 0 0 0 0 0 0 0 -0 -0 -0 -0 -0 0 0 0 0 0 0 0 0 0 -0 -0 0 0 -0 -0 -0 -0 -0 -0 -0 -0 0 0 0 0 0 0
-0 -0 -0 0 0 0 0 0 0 0 0 0 0 0 0 0 0 0 0 0 0 -0 -0 -0 -0 -0 -0 0 -0 0 0 0 0 0 0 -0 -0 0 -0 -0 -0 -0 -0 -0 -0 -0 -0 0 0 0 0 0 0 0
-0 -0 0 0 0 0 0 -0 0 0 0 0 0 0 0 0 0 0 0 0 0 0 0 0 -0 -0 -0 -0 0 0 0 0 0 0 0 0 -0 -0 -0 -0 -0 -0 -0 -0 -0 -0 0 0 0 0 0 0 0 0
0 0 0 0 0 0 -0 0 0 0 0 0 0 0 0 0 0 0 0 0 0 0 0 0 -0 -0 0 0 0 0 0 0 0 0 0 0 -0 -0 -0 -0 -0 -0 -0 -0 0 0 0 0 0 0 0 0 0 0
0 0 0 0 -0 -0 0 0 0 0 0 0 0 0 0 0 0 0 0 0 0 0 0 0 0 0 0 0 0 0 0 0 0 0 -0 -0 -0 -0 -0 -0 -0 -0 -0 0 0 0 0 0 0 0 0 0 0 0
0 0 0 0 0 0 0 0 0 0 0 0 0 0 0 0 0 0 0 0 0 0 0 0 0 0 0 0 0 0 0 0 0 0 0 0 0 -0 -0 -0 -0 0 0 0 0 0 -0 -0 -0 -0 -0 -0 -0 0
0 0 0 0 0 0 0 0 0 0 0 0 0 0 0 0 0 0 0 0 0 0 -0 -0 0 0 0 0 0 0 0 0 0 0 0 -0 0 0 -0 0 0 0 -0 -0 -0 0 -0 -0 0 0 -0 -0 0 0
0 0 0 0 0 0 0 0 0 0 0 0 0 0 0 0 0 0 0 0 0 0 -0 -0 -0 0 0 0 0 0 0 0 0 0 0 0 -0 -0 0 0 0 -0 -0 -0 -0 -0 -0 -0 0 0 0 0 0 0
0 0 0 0 0 0 0 0 0 0 0 0 0 0 0 0 0 0 -0 0 0 -0 0 0 0 -0 -0 -0 -0 0 0 0 0 0 -0 -0 0 0 0 0 0 -0 -0 -0 -0 -0 0 0 0 0 0 0 0 0
0 0 0 0 0 0 0 0 0 0 0 0 0 0 0 0 0 0 0 0 0 0 0 0 0 0 -0 -0 -0 -0 0 0 0 0 0 0 0 0 0 0 -0 -0 -0 -0 0 0 0 0 0 -0 -0 -0 -0 0
0 0 0 0 0 0 0 0 0 0 0 0 0 0 0 0 0 0 -0 0 0 0 0 0 0 0 0 -0 -0 -0 -0 0 0 0 0 0 0 0 0 0 0 -0 -0 -0 0 0 0 0 -0 -0 -0 -0 -0 0
0 0 0 0 0 0 0 0 0 0 0 0 0 0 0 0 0 0 0 0 0 0 0 0 0 0 0 0 0 -0 -0 -0 0 0 0 0 0 0 0 0 0 -0 0 0 0 0 -0 -0 -0 -0 -0 -0 0 0
0 0 0 0 0 0 0 0 0 0 0 0 0 0 0 0 0 0 0 0 0 0 0 0 0 0 -0 0 0 0 0 -0 0 0 0 0 0 0 0 0 -0 -0 -0 0 -0 -0 -0 -0 -0 -0 -0 -0 -0 0
0 0 0 0 0 0 0 0 0 0 0 0 0 0 0 0 0 0 0 -0 -0 -0 -0 -0 -0 -0 0 0 0 0 0 -0 0 0 0 0 0 -0 0 0 0 0 0 0 0 -0 -0 -0 -0 -0 -0 -0 0 0
0 0 0 0 0 0 0 0 0 0 0 0 0 0 0 0 0 0 0 0 0 0 0 0 -0 -0 -0 -0 -0 -0 -0 0 0 0 0 0 0 0 0 0 0 0 0 0 -0 -0 -0 -0 -0 -0 -0 0 0 0
0 0 0 0 -0 0 0 0 0 0 0 0 0 0 0 0 0 0 0 0 0 0 0 -0 -0 -0 -0 -0 0 -0 -0 0 0 0 0 0 0 0 -0 0 0 0 0 0 0 -0 -0 -0 -0 -0 0 0 0 0
0 0 0 0 0 0 0 0 0 0 0 0 0 0 0 0 0 0 0 0 0 0 0 0 0 0 0 -0 -0 -0 -0 -0 -0 -0 -0 -0 0 0 0 0 0 0 0 0 0 0 0 0 0 0 0 0 0 0
0 0 0 0 0 0 0 0 0 0 0 0 0 0 0 0 0 0 0 0 0 0 0 0 0 0 0 0 -0 -0 0 0 0 -0 0 0 0 0 0 0 0 0 0 0 0 0 0 0 0 0 0 0 0 0
0 0 0 0 0 0 0 0 0 0 0 0 0 0 0 0 0 0 0 0 0 0 0 0 0 0 0 0 0 0 0 0 0 0 0 0 0 0 0 0 0 0 0 0 0 0 0 0 0 0 0 0 0 0
0 0 0 0 0 0 0 0 0 0 0 0 0 0 0 0 0 0 0 0 0 0 0 0 0 0 -0 -0 -0 -0 0 0 -0 -0 -0 -0 0 0 0 0 0 0 0 0 0 0 0 0 0 0 0 0 0 0
0 0 0 0 0 0 0 0 0 0 0 0 0 0 0 0 0 0 0 0 0 0 0 0 0 0 0 -0 -0 0 0 0 -0 -0 -0 -0 -0 -0 0 0 0 0 0 0 0 0 0 0 0 0 0 0 0 0
Wind_Speed_500mb
31 32 36 40 41 43 45 45 44 48 43 36 37 37 36 33 32 28 31 22 23 17 55 22 27 40 46 27 9 30 20 5 6 14 8 7 5 7 5 7 5 7 6 6 4 7 8 43 21 6 22 62 61 54
31 32 36 39 40 42 44 44 44 45 39 37 38 36 32 30 31 30 35 30 32 35 55 55 35 19 26 38 47 13 14 21 9 5 4 6 4 5 5 3 13 5 7 6 10 6 12 22 29 41 50 71 55 60
32 33 36 37 39 40 41 42 41 43 39 36 37 34 31 29 27 26 34 29 28 24 43 21 16 39 36 31 23 13 11 17 14 20 5 5 4 4 6 6 5 5 13 8 6 17 19 30 45 51 54 71 67 68
31 35 38 37 37 39 39 41 40 43 38 36 35 34 33 32 26 26 29 21 21 18 10 19 35 33 42 53 44 26 37 47 39 18 5 3 3 8 6 8 7 11 11 12 16 18 39 49 48 55 68 77 79 73
29 33 37 38 38 38 37 38 39 41 35 34 34 36 35 28 22 23 16 4 17 12 9 30 41 30 58 58 39 18 36 29 25 8 4 2 4 7 5 6 12 23 1 2 7 26 38 29 48 52 85 78 66 74
28 32 39 38 39 37 37 38 39 40 35 35 37 39 29 19 16 18 4 1 22 19 11 9 26 31 66 46 32 33 30 28 23 8 7 13 20 8 6 8 36 44 51 28 19 60 65 60 60 61 74 63 56 59
22 31 40 36 39 38 36 36 39 41 35 34 37 27 17 13 10 6 4 14 31 21 7 11 18 25 51 36 27 27 33 30 27 14 16 21 29 17 8 11 19 46 63 62 58 51 50 37 53 52 56 56 56 56
25 35 36 36 37 37 35 35 37 38 35 33 29 20 10 4 4 5 9 22 22 7 5 6 9 19 36 24 16 30 18 21 34 15 18 14 11 12 12 14 27 32 39 43 49 55 60 54 52 48 45 47 51 48
35 35 34 36 38 35 34 32 34 33 31 25 20 8 2 1 1 6 24 7 5 3 6 5 7 10 31 18 13 17 13 7 12 10 14 13 12 15 7 20 26 22 32 48 47 48 46 47 42 38 38 38 44 39
35 35 35 34 35 32 31 34 34 31 27 17 8 3 3 4 12 7 4 4 1 2 4 6 4 9 15 12 9 19 9 6 5 9 7 9 7 18 6 10 30 39 42 38 43 36 35 37 35 33 34 33 34 32
29 30 30 31 31 28 27 29 33 30 17 13 9 3 6 7 1 3 1 3 3 1 4 7 8 11 9 7 7 11 4 5 4 7 5 5 5 14 18 36 36 36 26 38 42 38 33 32 32 32 30 29 28 27
28 28 28 28 29 23 21 21 28 27 21 20 14 14 6 3 2 2 2 5 3 4 7 12 16 11 9 7 6 7 5 3 7 6 4 4 4 15 27 30 30 29 38 39 36 36 32 31 27 27 26 25 24 25
26 27 26 28 27 24 16 17 22 21 17 4 5 7 4 2 5 2 4 2 4 7 5 14 11 7 7 5 5 5 5 6 2 6 4 3 19 26 26 29 30 34 35 34 32 29 26 27 25 21 23 21 21 24
22 25 27 30 26 19 14 17 19 11 6 1 4 6 1 2 2 2 1 2 3 7 19 18 10 3 4 4 4 5 5 2 5 2 1 6 22 30 27 30 36 36 34 31 28 25 25 23 23 23 21 22 22 24
21 20 27 25 18 13 13 15 13 3 1 4 4 4 4 0 5 7 8 9 6 13 14 14 9 4 3 2 1 2 1 5 3 2 4 21 24 24 28 34 40 41 32 27 25 24 24 22 21 23 22 21 22 23
19 21 17 16 10 11 12 8 6 5 4 5 7 5 5 3 4 4 9 11 9 10 11 4 5 2 2 5 3 4 2 2 2 2 26 33 29 26 30 40 41 36 26 30 25 23 24 25 25 24 25 24 21 24
13 10 19 19 13 10 7 8 6 6 5 5 7 12 11 11 11 7 6 6 8 8 2 2 4 2 2 3 2 1 2 1 9 17 32 37 31 31 38 53 48 35 36 31 26 25 26 28 25 27 27 24 21 23
10 16 18 14 9 2 8 8 5 6 7 9 8 3 9 14 12 12 9 2 4 2 2 2 5 4 2 3 2 5 5 10 16 21 32 35 30 39 53 42 32 29 33 29 25 24 23 24 24 24 25 25 24 23
12 12 11 8 4 3 8 9 7 5 7 8 12 13 13 13 17 13 11 6 9 4 3 2 4 3 3 5 5 11 20 23 33 28 31 33 37 47 36 34 29 31 28 24 20 20 20 19 19 20 21 22 19 20
16 11 8 6 5 3 4 6 9 6 6 4 9 11 10 12 12 6 14 7 9 4 2 4 5 3 4 7 9 12 23 34 49 29 29 33 38 39 36 32 29 30 29 26 22 19 18 17 16 15 13 16 15 18
8 7 3 3 3 7 6 5 8 6 7 6 8 9 7 10 8 9 11 12 8 6 7 9 8 7 5 13 19 20 29 32 28 34 33 37 35 36 35 33 30 31 30 29 22 18 14 11 11 18 19 16 15 14
7 9 8 8 5 4 8 9 6 7 6 6 8 6 7 6 7 9 13 8 7 7 8 6 11 16 16 24 31 33 32 34 31 30 29 32 32 31 30 29 31 29 27 24 20 14 8 5 9 18 24 22 19 14
10 11 7 8 5 8 6 7 7 6 5 2 2 4 6 6 5 17 5 7 6 9 16 16 21 23 29 38 41 29 26 23 22 23 25 26 26 25 25 26 27 26 25 24 20 16 10 7 13 18 22 24 25 21
12 9 6 7 9 6 5 7 8 5 3 3 3 5 4 4 13 5 4 5 9 21 23 22 25 28 24 27 26 25 22 22 22 23 23 24 24 23 23 24 24 25 23 20 20 20 17 10 15 16 17 21 26 27
2 6 5 7 8 6 6 6 7 6 4 4 4 5 3 7 4 4 4 4 19 30 25 25 26 26 27 29 29 26 22 18 21 22 21 19 23 25 25 23 23 21 20 19 22 24 26 21 18 18 19 20 22 23
6 10 8 8 5 7 8 5 7 8 4 4 6 2 2 3 4 5 3 7 22 33 28 25 31 30 25 23 25 26 24 21 17 23 22 23 26 25 23 23 24 25 24 25 23 25 29 28 22 21 19 18 18 19
5 6 9 10 5 6 7 6 3 4 4 5 2 3 4 5 5 0 1 5 15 25 20 20 20 20 21 20 20 14 19 24 26 27 25 23 20 16 14 10 8 8 10 21 24 20 22 26 24 21 17 17 20 23
9 5 5 2 4 7 4 3 3 8 6 6 4 4 2 3 1 2 4 8 12 21 21 21 18 16 15 15 20 21 22 27 27 24 22 20 18 16 16 15 12 10 13 19 19 22 23 24 22 16 10 10 13 14
7 7 6 7 8 9 10 8 6 6 5 9 4 3 2 2 6 7 10 10 10 12 18 21 21 19 17 13 21 27 27 27 29 28 27 24 23 22 25 25 19 14 17 21 25 24 24 21 15 12 11 10 9 9
8 16 8 7 7 8 8 14 4 6 8 6 2 2 3 9 12 8 5 2 1 4 8 16 27 26 25 23 27 32 33 29 29 25 19 16 15 19 19 22 26 22 20 23 25 28 26 22 20 20 15 11 9 8
4 12 7 8 7 8 11 7 7 5 8 11 10 5 2 2 3 7 9 10 11 12 12 13 20 35 31 27 28 32 32 28 30 28 23 10 13 17 17 15 18 23 26 25 25 24 22 21 22 22 17 14 12 11
11 16 9 6 5 6 8 11 7 6 4 10 10 7 5 5 9 14 15 14 15 17 15 13 13 26 32 25 24 17 21 26 26 22 23 19 20 23 17 11 17 23 24 24 25 25 24 22 19 18 17 15 15 13
11 9 11 8 4 4 6 6 4 4 6 7 11 10 10 7 7 5 5 6 8 6 10 10 12 16 22 25 28 29 25 19 31 32 30 20 24 23 18 13 15 17 16 19 23 26 24 23 21 18 16 17 17 16
Wind_Direction_500mb
307 314 318 323 329 331 333 332 332 335 337 338 338 342 342 345 343 331 323 326 314 275 294 285 292 283 293 298 300 308 325 3 309 3 2 354 343 17 316 330 80 49 359 42 76 106 131 350 322 282 117 125 137 135
300 308 317 321 327 330 333 333 333 337 336 334 337 339 341 340 337 325 314 329 322 282 281 308 309 309 286 294 276 294 283 285 306 336 338 310 326 331 345 96 18 62 359 99 26 79 16 17 75 100 122 116 120 116
298 307 313 320 327 328 330 330 331 334 331 332 334 337 335 335 334 322 311 332 338 293 312 314 331 340 335 323 310 277 294 315 262 255 255 234 294 312 350 46 103 69 18 87 126 28 50 66 80 87 104 109 115 117
296 305 313 318 322 323 330 328 331 333 333 335 335 332 332 329 330 328 322 332 340 305 298 290 328 353 355 345 339 298 294 321 307 296 240 297 297 336 47 31 43 1 4 101 90 112 75 51 76 100 106 113 116 120
296 304 307 315 319 323 327 325 326 331 330 329 328 325 323 317 318 322 304 331 355 338 292 294 324 358 357 359 358 42 1 336 328 356 346 1 68 47 33 62 26 338 275 346 86 85 102 81 91 99 106 110 116 118
289 304 313 315 318 320 319 321 323 328 327 328 325 326 327 316 318 338 302 277 350 328 313 304 320 329 356 11 20 3 27 12 13 8 11 29 23 68 54 63 5 46 71 96 92 98 99 100 101 102 107 107 107 108
291 309 302 311 313 314 318 319 322 328 325 326 324 324 331 314 308 300 297 315 335 330 291 292 310 331 346 352 346 8 41 22 19 20 32 42 30 43 46 65 9 61 76 83 95 102 88 93 102 104 106 107 104 101
277 286 297 307 311 313 317 320 323 326 326 326 324 323 332 323 297 292 278 303 321 327 308 313 298 319 350 343 340 354 22 18 22 16 7 17 25 58 58 89 89 77 81 81 92 101 106 108 107 104 103 104 99 97
278 292 304 310 316 316 314 313 319 329 328 326 319 316 279 218 22 286 307 332 17 28 330 312 322 326 333 337 330 335 2 65 14 37 25 21 11 39 70 41 58 107 108 112 103 100 104 103 104 102 101 100 100 100
286 304 312 316 317 316 311 314 323 339 336 339 331 274 219 252 313 330 352 348 319 31 292 271 325 318 326 330 323 346 14 38 39 41 18 31 62 58 59 70 105 102 105 104 101 100 105 102 103 101 96 96 99 104
295 301 306 312 316 315 313 314 321 342 349 9 343 267 273 304 24 51 347 1 344 98 310 301 294 319 325 324 322 359 341 357 69 7 56 54 61 49 100 118 123 115 103 103 97 97 98 100 106 106 104 102 103 106
284 297 302 311 319 311 307 314 326 337 355 340 327 313 336 43 82 84 13 318 335 356 321 315 321 299 304 319 291 357 342 7 64 340 65 67 106 113 130 129 128 119 117 105 98 95 93 96 104 111 110 107 107 109
285 295 305 317 317 304 299 306 315 321 334 26 315 284 343 12 61 76 33 45 340 346 324 330 331 317 315 328 298 315 11 53 337 28 68 86 137 141 142 139 128 131 120 104 94 85 88 97 103 103 108 107 109 111
288 301 307 313 310 301 289 307 304 318 355 66 255 312 273 115 117 196 287 321 290 311 334 334 305 296 309 318 329 338 27 192 80 88 93 135 147 151 152 155 140 136 127 111 101 95 91 93 98 101 100 100 105 113
297 307 309 309 299 290 303 302 292 251 21 244 226 253 222 359 267 265 278 287 287 301 315 320 287 235 296 288 31 287 127 61 3 116 130 142 149 156 149 151 146 141 132 124 109 97 91 88 93 99 97 102 110 115
302 311 311 317 302 304 300 278 196 175 240 238 238 241 198 269 279 263 259 278 300 321 313 278 286 279 35 350 11 48 349 64 122 118 152 156 154 164 157 147 141 150 151 136 117 107 96 94 94 96 100 96 104 108
310 300 312 308 305 294 257 179 176 221 241 232 246 239 243 274 257 260 282 279 289 311 307 293 289 29 336 317 126 115 45 92 161 157 171 171 167 168 153 150 163 164 152 143 128 120 113 101 97 100 98 103 108 117
310 311 310 293 304 277 174 179 214 236 241 251 252 295 236 252 269 281 283 255 279 223 261 327 292 224 219 215 202 162 144 134 149 157 164 168 157 157 155 163 167 160 155 148 135 119 113 112 107 105 96 96 101 113
318 310 271 269 274 222 191 192 213 250 255 272 275 278 273 277 284 276 242 269 228 252 248 225 274 216 219 203 197 192 176 161 156 151 153 167 160 162 166 165 164 162 161 157 143 131 134 133 124 111 105 98 103 108
308 285 241 214 227 223 248 196 202 243 262 259 274 273 274 271 281 279 178 161 179 157 194 237 234 245 226 296 244 213 181 174 166 145 150 157 169 172 175 174 173 178 178 175 166 161 162 166 168 159 134 116 104 116
299 216 185 188 232 232 248 225 221 244 268 260 294 291 268 252 241 206 205 202 184 211 228 235 272 294 159 142 142 140 153 160 161 175 177 179 181 190 193 191 194 192 187 182 179 182 189 207 221 203 185 156 136 130
180 180 207 195 225 238 263 228 239 298 256 262 295 234 259 237 213 205 172 194 225 212 205 182 147 131 128 141 143 135 130 135 141 144 156 165 165 173 181 187 188 186 184 181 175 170 177 224 211 198 195 182 170 158
194 187 200 188 232 218 253 200 232 234 238 246 239 249 228 226 207 167 213 218 227 190 168 156 144 126 128 136 146 147 155 155 156 167 163 161 160 157 159 160 163 166 168 170 170 175 167 145 153 161 175 186 189 186
141 170 209 205 214 262 211 212 215 239 267 257 224 258 227 196 167 219 246 212 189 171 171 170 166 160 157 167 170 160 143 139 145 150 151 155 155 156 158 160 162 167 170 175 184 187 186 165 159 155 167 182 189 193
171 204 208 237 227 237 223 205 200 198 231 223 242 249 179 173 208 228 239 194 179 178 172 172 174 180 177 179 182 180 174 165 169 169 172 170 170 167 170 175 183 192 201 211 216 210 200 191 179 168 161 164 170 177
240 206 212 218 218 220 202 193 202 217 220 252 237 270 200 214 226 236 223 193 185 181 184 187 184 183 187 189 187 195 201 200 196 187 181 179 179 180 186 201 216 229 235 235 232 216 210 203 200 197 199 201 204 210
250 244 218 227 270 297 264 250 212 181 231 234 208 202 208 215 231 88 167 165 172 179 178 171 175 181 186 192 199 200 182 182 177 176 173 177 186 200 219 245 255 228 229 194 183 189 202 203 203 203 215 233 244 246
239 267 229 124 239 236 292 331 263 210 218 213 187 213 241 221 37 117 131 130 154 172 173 176 176 181 192 193 185 174 167 169 172 178 188 203 216 212 185 181 184 183 164 177 180 175 175 182 180 188 212 246 251 240
238 222 201 248 238 222 222 222 242 231 215 177 213 188 240 199 125 119 131 127 128 154 181 188 191 191 199 187 191 192 191 188 191 198 209 222 226 213 199 199 200 186 170 165 169 161 158 161 174 195 212 223 210 198
244 193 205 218 212 225 235 208 237 307 234 201 210 283 182 146 139 118 127 128 208 229 238 234 224 220 210 233 208 194 200 205 209 208 211 225 238 225 215 219 219 213 198 187 182 185 191 201 206 209 219 224 216 209
228 184 223 230 254 238 233 241 244 256 238 216 216 250 248 161 244 235 241 256 266 274 287 276 235 214 208 206 203 195 197 203 206 219 230 219 182 182 190 201 212 202 197 200 204 206 212 219 220 217 222 225 222 218
199 203 211 224 249 295 269 194 208 235 216 204 206 229 295 259 266 280 269 265 267 268 265 255 237 213 207 202 204 214 223 216 203 193 185 189 186 175 178 180 180 185 191 199 208 210 211 211 214 219 221 226 224 226
206 216 224 256 279 274 187 176 204 238 216 204 206 221 238 222 231 238 264 263 277 254 225 234 212 195 200 213 227 233 228 196 191 184 188 191 186 184 181 172 165 174 184 188 188 190 193 201 209 214 219 223 227 233
Wind_Speed_850mb
31 32 36 40 41 43 45 45 44 48 43 36 37 37 36 33 32 28 31 22 23 17 55 22 27 40 46 27 9 30 20 5 6 14 8 7 5 7 5 7 5 7 6 6 4 7 8 43 21 6 22 62 61 54
31 32 36 39 40 42 44 44 44 45 39 37 38 36 32 30 31 30 35 30 32 35 55 55 35 19 26 38 47 13 14 21 9 5 4 6 4 5 5 3 13 5 7 6 10 6 12 22 29 41 50 71 55 60
32 33 36 37 39 40 41 42 41 43 39 36 37 34 31 29 27 26 34 29 28 24 43 21 16 39 36 31 23 13 11 17 14 20 5 5 4 4 6 6 5 5 13 8 6 17 19 30 45 51 54 71 67 68
31 35 38 37 37 39 39 41 40 43 38 36 35 34 33 32 26 26 29 21 21 18 10 19 35 33 42 53 44 26 37 47 39 18 5 3 3 8 6 8 7 11 11 12 16 18 39 49 48 55 68 77 79 73
29 33 37 38 38 38 37 38 39 41 35 34 34 36 35 28 22 23 16 4 17 12 9 30 41 30 58 58 39 18 36 29 25 8 4 2 4 7 5 6 12 23 1 2 7 26 38 29 48 52 85 78 66 74
28 32 39 38 39 37 37 38 39 40 35 35 37 39 29 19 16 18 4 1 22 19 11 9 26 31 66 46 32 33 30 28 23 8 7 13 20 8 6 8 36 44 51 28 19 60 65 60 60 61 74 63 56 59
22 31 40 36 39 38 36 36 39 41 35 34 37 27 17 13 10 6 4 14 31 21 7 11 18 25 51 36 27 27 33 30 27 14 16 21 29 17 8 11 19 46 63 62 58 51 50 37 53 52 56 56 56 56
25 35 36 36 37 37 35 35 37 38 35 33 29 20 10 4 4 5 9 22 22 7 5 6 9 19 36 24 16 30 18 21 34 15 18 14 11 12 12 14 27 32 39 43 49 55 60 54 52 48 45 47 51 48
35 35 34 36 38 35 34 32 34 33 31 25 20 8 2 1 1 6 24 7 5 3 6 5 7 10 31 18 13 17 13 7 12 10 14 13 12 15 7 20 26 22 32 48 47 48 46 47 42 38 38 38 44 39
35 35 35 34 35 32 31 34 34 31 27 17 8 3 3 4 12 7 4 4 1 2 4 6 4 9 15 12 9 19 9 6 5 9 7 9 7 18 6 10 30 39 42 38 43 36 35 37 35 33 34 33 34 32
29 30 30 31 31 28 27 29 33 30 17 13 9 3 6 7 1 3 1 3 3 1 4 7 8 11 9 7 7 11 4 5 4 7 5 5 5 14 18 36 36 36 26 38 42 38 33 32 32 32 30 29 28 27
28 28 28 28 29 23 21 21 28 27 21 20 14 14 6 3 2 2 2 5 3 4 7 12 16 11 9 7 6 7 5 3 7 6 4 4 4 15 27 30 30 29 38 39 36 36 32 31 27 27 26 25 24 25
26 27 26 28 27 24 16 17 22 21 17 4 5 7 4 2 5 2 4 2 4 7 5 14 11 7 7 5 5 5 5 6 2 6 4 3 19 26 26 29 30 34 35 34 32 29 26 27 25 21 23 21 21 24
22 25 27 30 26 19 14 17 19 11 6 1 4 6 1 2 2 2 1 2 3 7 19 18 10 3 4 4 4 5 5 2 5 2 1 6 22 30 27 30 36 36 34 31 28 25 25 23 23 23 21 22 22 24
21 20 27 25 18 13 13 15 13 3 1 4 4 4 4 0 5 7 8 9 6 13 14 14 9 4 3 2 1 2 1 5 3 2 4 21 24 24 28 34 40 41 32 27 25 24 24 22 21 23 22 21 22 23
19 21 17 16 10 11 12 8 6 5 4 5 7 5 5 3 4 4 9 11 9 10 11 4 5 2 2 5 3 4 2 2 2 2 26 33 29 26 30 40 41 36 26 30 25 23 24 25 25 24 25 24 21 24
13 10 19 19 13 10 7 8 6 6 5 5 7 12 11 11 11 7 6 6 8 8 2 2 4 2 2 3 2 1 2 1 9 17 32 37 31 31 38 53 48 35 36 31 26 25 26 28 25 27 27 24 21 23
10 16 18 14 9 2 8 8 5 6 7 9 8 3 9 14 12 12 9 2 4 2 2 2 5 4 2 3 2 5 5 10 16 21 32 35 30 39 53 42 32 29 33 29 25 24 23 24 24 24 25 25 24 23
12 12 11 8 4 3 8 9 7 5 7 8 12 13 13 13 17 13 11 6 9 4 3 2 4 3 3 5 5 11 20 23 33 28 31 33 37 47 36 34 29 31 28 24 20 20 20 19 19 20 21 22 19 20
16 11 8 6 5 3 4 6 9 6 6 4 9 11 10 12 12 6 14 7 9 4 2 4 5 3 4 7 9 12 23 34 49 29 29 33 38 39 36 32 29 30 29 26 22 19 18 17 16 15 13 16 15 18
8 7 3 3 3 7 6 5 8 6 7 6 8 9 7 10 8 9 11 12 8 6 7 9 8 7 5 13 19 20 29 32 28 34 33 37 35 36 35 33 30 31 30 29 22 18 14 11 11 18 19 16 15 14
7 9 8 8 5 4 8 9 6 7 6 6 8 6 7 6 7 9 13 8 7 7 8 6 11 16 16 24 31 33 32 34 31 30 29 32 32 31 30 29 31 29 27 24 20 14 8 5 9 18 24 22 19 14
10 11 7 8 5 8 6 7 7 6 5 2 2 4 6 6 5 17 5 7 6 9 16 16 21 23 29 38 41 29 26 23 22 23 25 26 26 25 25 26 27 26 25 24 20 16 10 7 13 18 22 24 25 21
12 9 6 7 9 6 5 7 8 5 3 3 3 5 4 4 13 5 4 5 9 21 23 22 25 28 24 27 26 25 22 22 22 23 23 24 24 23 23 24 24 25 23 20 20 20 17 10 15 16 17 21 26 27
2 6 5 7 8 6 6 6 7 6 4 4 4 5 3 7 4 4 4 4 19 30 25 25 26 26 27 29 29 26 22 18 21 22 21 19 23 25 25 23 23 21 20 19 22 24 26 21 18 18 19 20 22 23
6 10 8 8 5 7 8 5 7 8 4 4 6 2 2 3 4 5 3 7 22 33 28 25 31 30 25 23 25 26 24 21 17 23 22 23 26 25 23 23 24 25 24 25 23 25 29 28 22 21 19 18 18 19
5 6 9 10 5 6 7 6 3 4 4 5 2 3 4 5 5 0 1 5 15 25 20 20 20 20 21 20 20 14 19 24 26 27 25 23 20 16 14 10 8 8 10 21 24 20 22 26 24 21 17 17 20 23
9 5 5 2 4 7 4 3 3 8 6 6 4 4 2 3 1 2 4 8 12 21 21 21 18 16 15 15 20 21 22 27 27 24 22 20 18 16 16 15 12 10 13 19 19 22 23 24 22 16 10 10 13 14
7 7 6 7 8 9 10 8 6 6 5 9 4 3 2 2 6 7 10 10 10 12 18 21 21 19 17 13 21 27 27 27 29 28 27 24 23 22 25 25 19 14 17 21 25 24 24 21 15 12 11 10 9 9
8 16 8 7 7 8 8 14 4 6 8 6 2 2 3 9 12 8 5 2 1 4 8 16 27 26 25 23 27 32 33 29 29 25 19 16 15 19 19 22 26 22 20 23 25 28 26 22 20 20 15 11 9 8
4 12 7 8 7 8 11 7 7 5 8 11 10 5 2 2 3 7 9 10 11 12 12 13 20 35 31 27 28 32 32 28 30 28 23 10 13 17 17 15 18 23 26 25 25 24 22 21 22 22 17 14 12 11
11 16 9 6 5 6 8 11 7 6 4 10 10 7 5 5 9 14 15 14 15 17 15 13 13 26 32 25 24 17 21 26 26 22 23 19 20 23 17 11 17 23 24 24 25 25 24 22 19 18 17 15 15 13
11 9 11 8 4 4 6 6 4 4 6 7 11 10 10 7 7 5 5 6 8 6 10 10 12 16 22 25 28 29 25 19 31 32 30 20 24 23 18 13 15 17 16 19 23 26 24 23 21 18 16 17 17 16
Wind_Direction_850mb
307 314 318 323 329 331 333 332 332 335 337 338 338 342 342 345 343 331 323 326 314 275 294 285 292 283 293 298 300 308 325 3 309 3 2 354 343 17 316 330 80 49 359 42 76 106 131 350 322 282 117 125 137 135
300 308 317 321 327 330 333 333 333 337 336 334 337 339 341 340 337 325 314 329 322 282 281 308 309 309 286 294 276 294 283 285 306 336 338 310 326 331 345 96 18 62 359 99 26 79 16 17 75 100 122 116 120 116
298 307 313 320 327 328 330 330 331 334 331 332 334 337 335 335 334 322 311 332 338 293 312 314 331 340 335 323 310 277 294 315 262 255 255 234 294 312 350 46 103 69 18 87 126 28 50 66 80 87 104 109 115 117
296 305 313 318 322 323 330 328 331 333 333 335 335 332 332 329 330 328 322 332 340 305 298 290 328 353 355 345 339 298 294 321 307 296 240 297 297 336 47 31 43 1 4 101 90 112 75 51 76 100 106 113 116 120
296 304 307 315 319 323 327 325 326 331 330 329 328 325 323 317 318 322 304 331 355 338 292 294 324 358 357 359 358 42 1 336 328 356 346 1 68 47 33 62 26 338 275 346 86 85 102 81 91 99 106 110 116 118
289 304 313 315 318 320 319 321 323 328 327 328 325 326 327 316 318 338 302 277 350 328 313 304 320 329 356 11 20 3 27 12 13 8 11 29 23 68 54 63 5 46 71 96 92 98 99 100 101 102 107 107 107 108
291 309 302 311 313 314 318 319 322 328 325 326 324 324 331 314 308 300 297 315 335 330 291 292 310 331 346 352 346 8 41 22 19 20 32 42 30 43 46 65 9 61 76 83 95 102 88 93 102 104 106 107 104 101
277 286 297 307 311 313 317 320 323 326 326 326 324 323 332 323 297 292 278 303 321 327 308 313 298 319 350 343 340 354 22 18 22 16 7 17 25 58 58 89 89 77 81 81 92 101 106 108 107 104 103 104 99 97
278 292 304 310 316 316 314 313 319 329 328 326 319 316 279 218 22 286 307 332 17 28 330 312 322 326 333 337 330 335 2 65 14 37 25 21 11 39 70 41 58 107 108 112 103 100 104 103 104 102 101 100 100 100
286 304 312 316 317 316 311 314 323 339 336 339 331 274 219 252 313 330 352 348 319 31 292 271 325 318 326 330 323 346 14 38 39 41 18 31 62 58 59 70 105 102 105 104 101 100 105 102 103 101 96 96 99 104
295 301 306 312 316 315 313 314 321 342 349 9 343 267 273 304 24 51 347 1 344 98 310 301 294 319 325 324 322 359 341 357 69 7 56 54 61 49 100 118 123 115 103 103 97 97 98 100 106 106 104 102 103 106
284 297 302 311 319 311 307 314 326 337 355 340 327 313 336 43 82 84 13 318 335 356 321 315 321 299 304 319 291 357 342 7 64 340 65 67 106 113 130 129 128 119 117 105 98 95 93 96 104 111 110 107 107 109
285 295 305 317 317 304 299 306 315 321 334 26 315 284 343 12 61 76 33 45 340 346 324 330 331 317 315 328 298 315 11 53 337 28 68 86 137 141 142 139 128 131 120 104 94 85 88 97 103 103 108 107 109 111
288 301 307 313 310 301 289 307 304 318 355 66 255 312 273 115 117 196 287 321 290 311 334 334 305 296 309 318 329 338 27 192 80 88 93 135 147 151 152 155 140 136 127 111 101 95 91 93 98 101 100 100 105 113
297 307 309 309 299 290 303 302 292 251 21 244 226 253 222 359 267 265 278 287 287 301 315 320 287 235 296 288 31 287 127 61 3 116 130 142 149 156 149 151 146 141 132 124 109 97 91 88 93 99 97 102 110 115
302 311 311 317 302 304 300 278 196 175 240 238 238 241 198 269 279 263 259 278 300 321 313 278 286 279 35 350 11 48 349 64 122 118 152 156 154 164 157 147 141 150 151 136 117 107 96 94 94 96 100 96 104 108
310 300 312 308 305 294 257 179 176 221 241 232 246 239 243 274 257 260 282 279 289 311 307 293 289 29 336 317 126 115 45 92 161 157 171 171 167 168 153 150 163 164 152 143 128 120 113 101 97 100 98 103 108 117
310 311 310 293 304 277 174 179 214 236 241 251 252 295 236 252 269 281 283 255 279 223 261 327 292 224 219 215 202 162 144 134 149 157 164 168 157 157 155 163 167 160 155 148 135 119 113 112 107 105 96 96 101 113
318 310 271 269 274 222 191 192 213 250 255 272 275 278 273 277 284 276 242 269 228 252 248 225 274 216 219 203 197 192 176 161 156 151 153 167 160 162 166 165 164 162 161 157 143 131 134 133 124 111 105 98 103 108
308 285 241 214 227 223 248 196 202 243 262 259 274 273 274 271 281 279 178 161 179 157 194 237 234 245 226 296 244 213 181 174 166 145 150 157 169 172 175 174 173 178 178 175 166 161 162 166 168 159 134 116 104 116
299 216 185 188 232 232 248 225 221 244 268 260 294 291 268 252 241 206 205 202 184 211 228 235 272 294 159 142 142 140 153 160 161 175 177 179 181 190 193 191 194 192 187 182 179 182 189 207 221 203 185 156 136 130
180 180 207 195 225 238 263 228 239 298 256 262 295 234 259 237 213 205 172 194 225 212 205 182 147 131 128 141 143 135 130 135 141 144 156 165 165 173 181 187 188 186 184 181 175 170 177 224 211 198 195 182 170 158
194 187 200 188 232 218 253 200 232 234 238 246 239 249 228 226 207 167 213 218 227 190 168 156 144 126 128 136 146 147 155 155 156 167 163 161 160 157 159 160 163 166 168 170 170 175 167 145 153 161 175 186 189 186
141 170 209 205 214 262 211 212 215 239 267 257 224 258 227 196 167 219 246 212 189 171 171 170 166 160 157 167 170 160 143 139 145 150 151 155 155 156 158 160 162 167 170 175 184 187 186 165 159 155 167 182 189 193
171 204 208 237 227 237 223 205 200 198 231 223 242 249 179 173 208 228 239 194 179 178 172 172 174 180 177 179 182 180 174 165 169 169 172 170 170 167 170 175 183 192 201 211 216 210 200 191 179 168 161 164 170 177
240 206 212 218 218 220 202 193 202 217 220 252 237 270 200 214 226 236 223 193 185 181 184 187 184 183 187 189 187 195 201 200 196 187 181 179 179 180 186 201 216 229 235 235 232 216 210 203 200 197 199 201 204 210
250 244 218 227 270 297 264 250 212 181 231 234 208 202 208 215 231 88 167 165 172 179 178 171 175 181 186 192 199 200 182 182 177 176 173 177 186 200 219 245 255 228 229 194 183 189 202 203 203 203 215 233 244 246
239 267 229 124 239 236 292 331 263 210 218 213 187 213 241 221 37 117 131 130 154 172 173 176 176 181 192 193 185 174 167 169 172 178 188 203 216 212 185 181 184 183 164 177 180 175 175 182 180 188 212 246 251 240
238 222 201 248 238 222 222 222 242 231 215 177 213 188 240 199 125 119 131 127 128 154 181 188 191 191 199 187 191 192 191 188 191 198 209 222 226 213 199 199 200 186 170 165 169 161 158 161 174 195 212 223 210 198
244 193 205 218 212 225 235 208 237 307 234 201 210 283 182 146 139 118 127 128 208 229 238 234 224 220 210 233 208 194 200 205 209 208 211 225 238 225 215 219 219 213 198 187 182 185 191 201 206 209 219 224 216 209
228 184 223 230 254 238 233 241 244 256 238 216 216 250 248 161 244 235 241 256 266 274 287 276 235 214 208 206 203 195 197 203 206 219 230 219 182 182 190 201 212 202 197 200 204 206 212 219 220 217 222 225 222 218
199 203 211 224 249 295 269 194 208 235 216 204 206 229 295 259 266 280 269 265 267 268 265 255 237 213 207 202 204 214 223 216 203 193 185 189 186 175 178 180 180 185 191 199 208 210 211 211 214 219 221 226 224 226
206 216 224 256 279 274 187 176 204 238 216 204 206 221 238 222 231 238 264 263 277 254 225 234 212 195 200 213 227 233 228 196 191 184 188 191 186 184 181 172 165 174 184 188 188 190 193 201 209 214 219 223 227 233